Regional Weather Roundup
Issued by NWS

Home | Current Version | Previous Version | Text Only | Print | Product List | Glossary On
Versions: 1 2 3 4 5 6 7 8 9 10 11 12 13 14 15 16 17 18 19 20 21 22 23 24 25 26 27 28 29 30 31 32 33 34 35 36 37 38 39 40 41 42 43 44 45 46 47 48 49 50
000
ASUS45 KREV 030010
RWRNV
NEVADA REGIONAL WEATHER ROUNDUP
NATIONAL WEATHER SERVICE RENO NV
500 PM PDT MON MAY 02 2016

NOTE: "FAIR" INDICATES FEW OR NO CLOUDS BELOW 12,000 FEET WITH NO
SIGNIFICANT WEATHER AND/OR OBSTRUCTIONS TO VISIBILITY.

NVZ001-003-004-030100-
WESTERN NEVADA

CITY           SKY/WX    TMP DP  RH WIND       PRES   REMARKS
RENO           PTSUNNY   69  31  24 E6        30.07F
6HR MIN TEMP:  62; 6HR MAX TEMP:  70;

CARSON CITY    PTSUNNY   66  32  28 NE9       30.09S
MINDEN         CLOUDY    64  32  29 W9        30.09S
SLIDE MTN        N/A     46  25  42 W8          N/A
PYRAMID LAKE     N/A     66 N/A N/A N3          N/A
FALLON         PTSUNNY   71  27  19 SW5       30.05F
6HR MIN TEMP:  64; 6HR MAX TEMP:  73;

LOVELOCK       MOSUNNY   72  24  16 VRB3      30.06F
6HR MIN TEMP:  64; 6HR MAX TEMP:  74;

$$

NVZ002-CAZ072-073-030100-
NORTHERN AND CENTRAL SIERRA

CITY           SKY/WX    TMP DP  RH WIND       PRES   REMARKS
S. LAKE TAHOE  CLOUDY    55  31  39 SW3       30.16F
6HR MIN TEMP:  53; 6HR MAX TEMP:  59;

TRUCKEE        PTSUNNY   57  32  38 W8        30.14F
                   6HR MAX TEMP:  63;

SQUAW VLY 8000   N/A     45  32  61 SW3         N/A
SUSANVILLE     MOSUNNY   70  34  26 SW3       30.07F
BLUE CANYON    MOSUNNY   59  38  45 W9        30.16S
MAMMOTH LAKES  FAIR      60  20  21 SE10      30.16F
6HR MIN TEMP:  52; 6HR MAX TEMP:  62;

BRIDGEPORT     CLOUDY    59  21  23 CALM      30.12F
$$

NVZ030-031-036-030100-
NORTHERN NEVADA

CITY           SKY/WX    TMP DP  RH WIND       PRES   REMARKS
ELKO           SUNNY     65  32  29 S5        30.14S
6HR MIN TEMP:  58; 6HR MAX TEMP:  67;

WINNEMUCCA     CLOUDY    68  30  24 E9        30.09F
6HR MIN TEMP:  63; 6HR MAX TEMP:  70;

WENDOVER       SUNNY     64  34  32 SE7       30.16S
$$

NVZ035-037-030100-
CENTRAL NEVADA

CITY           SKY/WX    TMP DP  RH WIND       PRES   REMARKS
ELY            PTSUNNY   57  29  34 S9        30.18S
6HR MIN TEMP:  53; 6HR MAX TEMP:  59;

EUREKA           N/A     61  33  35 S9        30.15F
6HR MIN TEMP:  56; 6HR MAX TEMP:  63;

$$

NVZ013-014-030100-
SOUTH CENTRAL NEVADA

CITY           SKY/WX    TMP DP  RH WIND       PRES   REMARKS
TONOPAH        MOSUNNY   61  32  33 SW12      30.16S
6HR MIN TEMP:  59; 6HR MAX TEMP:  66;

$$

NVZ017-020-022-030100-
SOUTHERN NEVADA

CITY           SKY/WX    TMP DP  RH WIND       PRES   REMARKS
LAS VEGAS      MOSUNNY   78  29  16 CALM      29.97S
6HR MIN TEMP:  73; 6HR MAX TEMP:  81;

N. LAS VEGAS   SUNNY     78  34  20 SE7       30.00F
6HR MIN TEMP:  71; 6HR MAX TEMP:  79;

NELLIS AFB     MOSUNNY   79  34  19 NE9       29.99S
6HR MIN TEMP:  73; 6HR MAX TEMP:  80;

HENDERSON      MOSUNNY   77  34  21 CALM      30.03F
6HR MIN TEMP:  70; 6HR MAX TEMP:  79;

MERCURY        MOSUNNY   74  35  24 N6        30.05S
6HR MIN TEMP:  68; 6HR MAX TEMP:  76;

$$



USA.gov is the U.S. government's official web portal to all federal, state and local government web resources and services.